Regional Weather Roundup
Issued by NWS Upton, NY

Current Version | Previous Version | Graphics & Text | Print | Product List | Glossary Off
Versions: 1 2 3 4 5 6 7 8 9 10 11 12 13 14 15 16 17 18 19 20 21 22 23 24 25 26 27 28 29 30 31 32 33 34 35 36 37 38 39 40 41 42 43 44 45 46 47 48 49 50

000
ASUS41 KOKX 190705
RWROKX

REGIONAL WEATHER ROUNDUP
NATIONAL WEATHER SERVICE NEW YORK NY
300 AM EDT FRI SEP 19 2014

NOTE: "FAIR" INDICATES FEW OR NO CLOUDS BELOW 12,000 FEET WITH NO
SIGNIFICANT WEATHER AND/OR OBSTRUCTIONS TO VISIBILITY.

NYZ071-072-176-178-NJZ106-104-190800-
NEW YORK CITY METRO AREA


CITY           SKY/WX    TMP DP  RH WIND       PRES   REMARKS
CENTRAL PARK   CLEAR     61  47  59 VRB6      30.19R
LAGUARDIA APRT CLEAR     60  50  69 N9        30.16R
KENNEDY INTL   CLEAR     61  50  67 N10       30.15R
NEWARK/LIBERTY CLEAR     59  50  72 N13       30.16R
BRNX BOT. GARD   N/A     57  48  72 NW6       30.18S
TETERBORO      CLEAR     58  48  69 N5        30.16R
$$

NYZ177-179-078>081-190800-
LONG ISLAND NEW YORK

CITY           SKY/WX    TMP DP  RH WIND       PRES   REMARKS
FARMINGDALE    CLEAR     60  51  72 NE8       30.15R
ISLIP          CLEAR     59  50  72 N10       30.14R
SHIRLEY        PTCLDY    58  51  78 N7        30.16R
WESTHAMPTON    PTCLDY    59  51  75 N10       30.17R
MONTAUK POINT    N/A     59  49  69 N14G23    30.16R
$$

NYZ052-065-067-190800-
HUDSON VALLEY

CITY           SKY/WX    TMP DP  RH WIND       PRES   REMARKS
WHITE PLAINS   CLEAR     55  48  77 N3        30.17R
NEWBURGH       MOCLDY    52  48  87 N7        30.22R
MONTGOMERY     MOCLDY    49  45  86 NE6       30.21R
POUGHKEEPSIE   CLEAR     50  44  80 CALM      30.21R
ALBANY         PTCLDY    46  36  68 N10       30.26R
$$

NJZ001-105-106-008-010-013-015-019>022-104-190800-
NEW JERSEY

CITY           SKY/WX    TMP DP  RH WIND       PRES   REMARKS
NEWARK/LIBERTY CLEAR     59  50  72 N13       30.16R
TETERBORO      CLEAR     58  48  69 N5        30.16R
CALDWELL       CLEAR     55  49  80 NE3       30.18R
MORRISTOWN     CLEAR     50  46  87 CALM      30.18R
SOMERVILLE     CLEAR     54  48  80 N5        30.15R
LINDEN         FAIR      64  53  67 N7        30.18R
SUSSEX         MOCLDY    55  48  77 N6        30.20R
ANDOVER          N/A     51  49  92 NE3       30.19R
TRENTON        CLEAR     57  48  72 N7        30.15R
MILLVILLE      CLEAR     53  52  96 CALM      30.12R
ATLANTIC CITY  MOCLDY    56  53  90 NW3       30.12R
WRIGHTSTOWN    PTCLDY    55  50  83 N9        30.12R
TOMS RIVER     CLEAR     55  52  88 N5        30.13S
BELMAR         CLEAR     61  48  63 NE9       30.14R
$$

PAZ047>061-062-071-190800-
EASTERN PENNSYLVANIA

CITY           SKY/WX    TMP DP  RH WIND       PRES   REMARKS
PHILADELPHIA   CLEAR     60  49  66 N12       30.14R
ALLENTOWN      CLEAR     52  47  83 CALM      30.18R
SCRANTON       CLEAR     51  45  79 N5        30.21R
$$

CTZ002-004>006-009-010-012-RIZ004-006-007-MAZ004-011-015-190800-
SOUTHERN NEW ENGLAND
 IN CT

CITY           SKY/WX    TMP DP  RH WIND       PRES   REMARKS
BRADLEY INTL   MOCLDY    50  39  66 N8        30.21R
HARTFORD       CLOUDY    52  42  69 VRB7      30.21R
DANBURY        MOCLDY    55  50  83 NE8       30.19R
WTRBRY/OXFORD  MOCLDY    52  43  71 NE10G18   30.19S
BRIDGEPORT     PTCLDY    58  48  69 NE10      30.18R
MERIDEN        MOCLDY    54  43  66 N14G20    30.20R
NEW HAVEN      MOCLDY    57  46  66 N13       30.18R
CHESTER        PTSUNNY   54  48  82 NE8       30.18R
GROTON         MOCLDY    54  46  74 N14       30.17R
WILLIMANTIC    CLOUDY    53  42  66 N7        30.21R

 IN RI

CITY           SKY/WX    TMP DP  RH WIND       PRES   REMARKS
PROVIDENCE     PTCLDY    53  40  61 N12       30.19R
BLOCK ISLAND   CLEAR     57  46  67 NE15G26   30.15R
WESTERLY       CLOUDY    55  44  66 N10       30.17R

 IN MA

CITY           SKY/WX    TMP DP  RH WIND       PRES   REMARKS
BOSTON         MOCLDY    51  39  63 N13       30.21R
WORCESTER      MOCLDY    46  36  68 N10       30.21R
WESTFIELD      CLEAR     47  40  76 N7        30.23R
PROVINCETOWN   MOCLDY    55  43  62 NE18G24   30.18R
NANTUCKET      CLOUDY    60  47  61 N21G26    30.13R
$$

ANZ330-335-338-340-345-350-353-355-190800-
COASTAL MARINE OBSERVATIONS


STATION/POSITION TIME  SKY/WX   TEMP    WIND        PRES    VSBY  WAVE
                                AIR SEA DIR/SP/G                  HT/PER
                 (UTC)          (F)     (DEG/KT/KT) (MB)    (MI)  (FT/S)
NY HARB ENTRANCE 0700            65 70   30/ 19/ 23 1020.1          4/10
4S FIRE IS       0700               70                N/A           3/11
23SW MTP         0700                                 N/A           3/ 4
HUDSON CANYON    0700            70 72  330/  8/ 10 1019.2          3/ 9
EXECUTION ROCKS  0700            63 71   30/ 14/ 16   N/A
WESTERN LI SOUND 0700            62      50/ 12/ 16   N/A           1
CENTRAL LI SOUND 0600            60 71   20/ 17/ 21   N/A           2/ 3
EASTERN LI SOUND 0600            58 67   30/ 16/ 23   N/A
ROBBINS REEF     0700            62     360/ 12/ 14 1019.9
$$


>>>>>>>>>>>>>>>>>>>>>>>>>>>> KEY <<<<<<<<<<<<<<<<<<<<<<<<<<<
>                                                          <
>     SKY/WX - SKY CONDITION/PRESENT WEATHER               <
>     TMP    - TEMPERATURE IN FAHRENHEIT                   <
>     DP     - DEWPOINT IN FAHRENHEIT                      <
>     RH     - RELATIVE HUMIDITY IN PERCENT                <
>     WIND   - DIRECTION AND SPEED IN MPH                  <
>     PRES   - MEAN SEA LEVEL PRESSURE IN INCHES OF HG     <
>     WCI    - WIND CHILL INDEX                            <
>     VSB    - VISIBILITY IN MILES                         <
>     HX     - HEAT INDEX                                  <
>     TC     - TEMPERATURE IN CELSIUS                      <
>     VRB    - VARIABLE WIND DIRECTION                     <
>                                                          <
>>>>>>>>>>>>>>>>>>>>>>>>>>>> KEY <<<<<<<<<<<<<<<<<<<<<<<<<<<




USA.gov is the U.S. government's official web portal to all federal, state and local government web resources and services.